sat.trackr.live / text

‹ back to catalog

STARLINK-36542

NORAD 67445 · 2026-008A

PAYLOAD ACTIVE UNKNOWN

§ Identity

Operator
Country
US
Launch date
2026-01-14
Launch site
AFETR
Launch vehicle
Mass (kg)
RCS (m²)

Purposes: comms

External: N2YO · Heavens-Above · Gunter

§ Orbital elements

Epoch: 2026-05-24T23:03:10.714752Z

Period
94.27 min
Inclination
43.0007°
Eccentricity
0.0001236
Mean motion
15.27597156 rev/d
Perigee alt
482.1 km
Apogee alt
483.8 km
Semi-major
6,861.1 km
B*
7.5327e-4
RAAN
134.7726°
Arg perigee
269.1002°
Mean anomaly
90.9708°
Rev number
2,123

§ Raw data

STARLINK-365421 67445U 26008A   26144.96054068  .00020535  00000+0  75327-3 0  99982 67445  43.0007 134.7726 0001236 269.1002  90.9708 15.27597156 21233

JSON: /api/v1/satellites/67445 · /tle

For live sub-satellite position, see the globe view (requires WebGL).

§ Visibility from observer

Set your observer location to see the next 7 days of passes ≥ 10°. The values pass through the URL so the page stays shareable.

No JS? Fill the form by hand. The geolocation button needs JavaScript.